QPF
0.00 0.00 0.00 0.00 0.00 0.00 0.00 0.00 0.00 0.00 0.00 0.00 0.00 0.00 0.00 0.00 0.00 0.00 0.00 0.00 0.00 0.00 0.00 0.00 0.00 0.00 0.00 0.00 0.00 0.00 0.00 0.00 0.00 0.00 0.00 0.00 0.00 0.00 0.00 0.00 0.00 0.00 0.00 0.00 0.00 0.00 0.00 0.00 0.00 0.00 0.00 0.00 0.00 0.00 0.00 0.00 0.00 0.00 0.00 0.00 0.00 0.00 0.00
0.00 0.00 0.00 0.00 0.00 0.00 0.00 0.00 0.00 0.00 0.00 0.00 0.00 0.00 0.00 0.00 0.00 0.00 0.00 0.00 0.00 0.00 0.00 0.00 0.00 0.00 0.00 0.00 0.00 0.00 0.00 0.00 0.00 0.00 0.00 0.00 0.00 0.00 0.00 0.00 0.00 0.00 0.00 0.00 0.00 0.00 0.00 0.00 0.00 0.00 0.00 0.00 0.00 0.00 0.00 0.00 0.00 0.00 0.00 0.00 0.00 0.00 0.00
0.00 0.00 0.00 0.00 0.00 0.00 0.00 0.00 0.00 0.00 0.00 0.00 0.00 0.00 0.00 0.00 0.00 0.00 0.00 0.00 0.00 0.00 0.00 0.00 0.00 0.00 0.00 0.00 0.00 0.00 0.00 0.00 0.00 0.00 0.00 0.00 0.00 0.00 0.00 0.00 0.00 0.00 0.00 0.00 0.00 0.00 0.00 0.00 0.00 0.00 0.00 0.00 0.00 0.00 0.00 0.00 0.00 0.00 0.00 0.00 0.00 0.00 0.00
0.00 0.00 0.00 0.00 0.00 0.00 0.00 0.00 0.00 0.00 0.00 0.06 0.10 0.02 0.00 0.00 0.00 0.00 0.00 0.00 0.00 0.00 0.00 0.00 0.00 0.00 0.00 0.00 0.00 0.00 0.00 0.00 0.00 0.00 0.00 0.00 0.00 0.00 0.00 0.00 0.00 0.00 0.00 0.00 0.00 0.00 0.00 0.00 0.00 0.00 0.00 0.00 0.00 0.00 0.00 0.00 0.00 0.00 0.00 0.00 0.00 0.00 0.00
0.00 0.00 0.00 0.00 0.00 0.00 0.00 0.00 0.01 0.19 0.37 0.21 0.11 0.00 0.00 0.00 0.00 0.00 0.00 0.00 0.00 0.00 0.00 0.00 0.00 0.00 0.00 0.00 0.00 0.00 0.00 0.00 0.00 0.00 0.00 0.00 0.00 0.00 0.00 0.00 0.00 0.00 0.00 0.00 0.00 0.00 0.00 0.00 0.00 0.00 0.00 0.00 0.00 0.00 0.00 0.00 0.00 0.00 0.00 0.00 0.00 0.00 0.00
0.00 0.00 0.00 0.00 0.00 0.00 0.00 0.00 0.00 0.01 0.01 0.01 0.05 0.00 0.00 0.00 0.00 0.00 0.00 0.00 0.01 0.00 0.00 0.00 0.00 0.00 0.00 0.00 0.00 0.00 0.00 0.00 0.00 0.00 0.00 0.00 0.00 0.00 0.00 0.00 0.00 0.00 0.00 0.00 0.00 0.00 0.00 0.00 0.00 0.00 0.00 0.00 0.00 0.00 0.00 0.00 0.00 0.00 0.00 0.00 0.00 0.00 0.00
0.00 0.00 0.00 0.00 0.00 0.00 0.00 0.00 0.00 0.00 0.00 0.00 0.01 0.00 0.00 0.00 0.00 0.00 0.02 0.02 0.00 0.00 0.00 0.00 0.00 0.00 0.00 0.00 0.00 0.00 0.00 0.00 0.00 0.00 0.00 0.00 0.00 0.00 0.00 0.00 0.00 0.00 0.00 0.00 0.00 0.00 0.00 0.00 0.00 0.00 0.00 0.00 0.00 0.00 0.00 0.00 0.00 0.00 0.00 0.00 0.00 0.00 0.00
0.00 0.00 0.00 0.00 0.00 0.00 0.00 0.00 0.00 0.00 0.00 0.00 0.00 0.01 0.00 0.00 0.00 0.00 0.00 0.00 0.00 0.00 0.00 0.00 0.00 0.00 0.00 0.00 0.00 0.00 0.00 0.00 0.00 0.00 0.00 0.00 0.00 0.00 0.00 0.00 0.00 0.00 0.00 0.00 0.00 0.00 0.00 0.00 0.00 0.00 0.00 0.00 0.00 0.00 0.00 0.00 0.00 0.00 0.00 0.00 0.00 0.00 0.00
0.00 0.00 0.00 0.00 0.00 0.00 0.00 0.00 0.00 0.00 0.00 0.00 0.02 0.02 0.02 0.01 0.00 0.00 0.00 0.00 0.00 0.00 0.00 0.00 0.00 0.00 0.00 0.00 0.00 0.00 0.00 0.00 0.00 0.00 0.00 0.00 0.00 0.00 0.00 0.00 0.00 0.00 0.00 0.00 0.00 0.00 0.00 0.00 0.00 0.00 0.00 0.00 0.00 0.00 0.00 0.00 0.00 0.00 0.00 0.00 0.00 0.00 0.00
0.00 0.00 0.00 0.00 0.00 0.00 0.00 0.00 0.00 0.00 0.00 0.00 0.01 0.02 0.02 0.01 0.00 0.00 0.00 0.00 0.00 0.00 0.00 0.00 0.00 0.00 0.00 0.00 0.00 0.00 0.00 0.00 0.00 0.00 0.00 0.00 0.00 0.00 0.00 0.00 0.00 0.00 0.00 0.00 0.00 0.00 0.00 0.00 0.00 0.00 0.00 0.00 0.00 0.00 0.00 0.00 0.00 0.00 0.00 0.00 0.00 0.00 0.00
0.00 0.00 0.00 0.00 0.00 0.00 0.00 0.00 0.00 0.00 0.00 0.00 0.00 0.01 0.01 0.00 0.00 0.00 0.00 0.00 0.00 0.00 0.00 0.00 0.00 0.00 0.00 0.00 0.00 0.00 0.00 0.00 0.00 0.00 0.00 0.00 0.00 0.00 0.00 0.00 0.00 0.00 0.00 0.00 0.00 0.00 0.00 0.00 0.00 0.00 0.00 0.00 0.00 0.00 0.00 0.00 0.00 0.00 0.00 0.00 0.00 0.00 0.00
0.00 0.00 0.00 0.00 0.00 0.00 0.00 0.00 0.00 0.00 0.00 0.00 0.00 0.01 0.01 0.01 0.00 0.00 0.00 0.00 0.00 0.00 0.00 0.00 0.00 0.00 0.00 0.00 0.00 0.00 0.00 0.00 0.00 0.00 0.00 0.00 0.00 0.00 0.00 0.00 0.00 0.00 0.00 0.00 0.00 0.00 0.00 0.00 0.00 0.00 0.00 0.00 0.00 0.00 0.00 0.00 0.00 0.00 0.00 0.00 0.00 0.00 0.00
0.00 0.00 0.00 0.00 0.00 0.00 0.00 0.00 0.00 0.00 0.00 0.00 0.00 0.00 0.01 0.01 0.00 0.00 0.00 0.00 0.00 0.00 0.00 0.00 0.03 0.01 0.00 0.00 0.00 0.00 0.00 0.00 0.00 0.00 0.00 0.00 0.00 0.00 0.00 0.00 0.00 0.00 0.00 0.00 0.00 0.00 0.00 0.00 0.00 0.00 0.00 0.00 0.00 0.00 0.00 0.00 0.00 0.00 0.01 0.12 0.05 0.02 0.00
0.00 0.00 0.00 0.00 0.00 0.00 0.00 0.00 0.00 0.00 0.00 0.00 0.00 0.00 0.00 0.00 0.00 0.01 0.00 0.00 0.00 0.00 0.00 0.00 0.00 0.02 0.00 0.00 0.00 0.00 0.00 0.00 0.00 0.00 0.00 0.00 0.00 0.00 0.00 0.00 0.00 0.00 0.00 0.00 0.00 0.00 0.00 0.00 0.00 0.00 0.00 0.00 0.00 0.00 0.00 0.00 0.00 0.03 0.47 0.45 0.09 0.01 0.00
0.00 0.00 0.00 0.00 0.00 0.00 0.00 0.00 0.00 0.00 0.00 0.00 0.00 0.00 0.00 0.00 0.00 0.00 0.00 0.00 0.00 0.00 0.00 0.00 0.00 0.00 0.00 0.00 0.00 0.00 0.00 0.00 0.00 0.00 0.00 0.00 0.00 0.00 0.00 0.00 0.00 0.00 0.00 0.00 0.00 0.00 0.00 0.00 0.00 0.00 0.00 0.00 0.00 0.00 0.00 0.00 0.01 0.31 0.30 0.22 0.12 0.02 0.01
0.00 0.00 0.00 0.00 0.00 0.00 0.00 0.00 0.00 0.00 0.00 0.00 0.00 0.00 0.00 0.00 0.00 0.00 0.01 0.00 0.00 0.00 0.00 0.00 0.00 0.00 0.00 0.00 0.00 0.00 0.00 0.00 0.00 0.00 0.00 0.00 0.00 0.00 0.00 0.00 0.00 0.00 0.00 0.00 0.00 0.00 0.00 0.00 0.00 0.00 0.00 0.00 0.00 0.00 0.00 0.02 0.20 0.12 0.03 0.10 0.16 0.15 0.01
0.00 0.00 0.00 0.00 0.00 0.00 0.00 0.00 0.00 0.00 0.00 0.00 0.00 0.00 0.00 0.00 0.00 0.00 0.00 0.00 0.00 0.00 0.00 0.00 0.00 0.00 0.00 0.00 0.00 0.00 0.00 0.00 0.00 0.00 0.00 0.00 0.00 0.00 0.00 0.00 0.00 0.00 0.00 0.00 0.00 0.00 0.00 0.00 0.00 0.00 0.00 0.00 0.00 0.00 0.00 0.14 0.00 0.00 0.02 0.09 0.03 0.11 0.10
0.00 0.00 0.00 0.00 0.00 0.00 0.00 0.00 0.00 0.00 0.00 0.00 0.00 0.00 0.00 0.00 0.00 0.01 0.00 0.00 0.00 0.00 0.00 0.00 0.00 0.00 0.00 0.00 0.00 0.00 0.00 0.00 0.00 0.00 0.00 0.00 0.00 0.00 0.00 0.00 0.00 0.00 0.00 0.00 0.00 0.00 0.00 0.00 0.00 0.00 0.00 0.00 0.00 0.00 0.00 0.00 0.00 0.00 0.01 0.03 0.28 0.03 0.00
0.00 0.00 0.00 0.00 0.00 0.00 0.00 0.00 0.00 0.00 0.00 0.00 0.00 0.00 0.00 0.01 0.01 0.01 0.01 0.00 0.00 0.00 0.00 0.00 0.00 0.00 0.00 0.00 0.00 0.00 0.00 0.00 0.00 0.00 0.00 0.00 0.00 0.00 0.00 0.00 0.00 0.00 0.00 0.00 0.00 0.00 0.00 0.00 0.00 0.00 0.00 0.00 0.00 0.00 0.00 0.00 0.00 0.00 0.00 0.62 0.42 0.07 0.03
0.00 0.00 0.00 0.00 0.00 0.00 0.00 0.00 0.00 0.00 0.00 0.00 0.00 0.01 0.01 0.01 0.01 0.01 0.01 0.01 0.01 0.00 0.00 0.00 0.00 0.00 0.00 0.00 0.00 0.00 0.00 0.00 0.00 0.00 0.00 0.00 0.00 0.00 0.00 0.00 0.00 0.00 0.00 0.00 0.00 0.00 0.00 0.00 0.00 0.00 0.00 0.00 0.00 0.00 0.00 0.00 0.00 0.00 0.00 0.00 0.07 0.00 0.00
0.00 0.00 0.00 0.00 0.00 0.00 0.00 0.00 0.00 0.00 0.00 0.01 0.01 0.01 0.01 0.01 0.01 0.00 0.00 0.00 0.01 0.01 0.01 0.00 0.00 0.00 0.00 0.00 0.00 0.00 0.00 0.00 0.00 0.00 0.00 0.00 0.00 0.00 0.00 0.00 0.00 0.00 0.00 0.00 0.00 0.00 0.00 0.00 0.00 0.00 0.00 0.00 0.00 0.00 0.00 0.00 0.00 0.00 0.00 0.00 0.00 0.00 0.00
0.00 0.00 0.00 0.00 0.00 0.00 0.00 0.00 0.00 0.01 0.01 0.01 0.01 0.01 0.01 0.01 0.01 0.00 0.00 0.00 0.00 0.00 0.01 0.01 0.01 0.00 0.00 0.00 0.00 0.00 0.00 0.00 0.00 0.00 0.00 0.00 0.00 0.00 0.00 0.00 0.00 0.00 0.00 0.00 0.00 0.00 0.00 0.00 0.00 0.00 0.00 0.00 0.00 0.00 0.00 0.00 0.00 0.00 0.00 0.00 0.00 0.00 0.00
0.00 0.00 0.00 0.00 0.00 0.00 0.00 0.00 0.01 0.01 0.01 0.01 0.01 0.00 0.00 0.00 0.00 0.00 0.00 0.00 0.00 0.00 0.00 0.01 0.01 0.01 0.01 0.00 0.00 0.00 0.00 0.00 0.00 0.00 0.00 0.00 0.00 0.00 0.00 0.00 0.00 0.00 0.00 0.00 0.00 0.00 0.00 0.00 0.00 0.00 0.00 0.00 0.00 0.00 0.00 0.00 0.00 0.00 0.00 0.00 0.00 0.00 0.00
0.00 0.00 0.00 0.00 0.00 0.00 0.00 0.01 0.00 0.00 0.01 0.01 0.00 0.00 0.00 0.00 0.00 0.00 0.00 0.00 0.00 0.00 0.00 0.00 0.01 0.00 0.01 0.00 0.00 0.00 0.00 0.00 0.00 0.00 0.00 0.00 0.00 0.00 0.00 0.00 0.00 0.01 0.00 0.00 0.00 0.00 0.00 0.00 0.00 0.00 0.00 0.00 0.04 0.00 0.00 0.00 0.00 0.00 0.00 0.00 0.00 0.00 0.01
0.00 0.00 0.00 0.00 0.00 0.00 0.01 0.01 0.00 0.01 0.00 0.00 0.00 0.00 0.00 0.00 0.00 0.01 0.00 0.00 0.00 0.00 0.00 0.00 0.00 0.00 0.01 0.00 0.00 0.00 0.00 0.00 0.00 0.01 0.00 0.00 0.00 0.00 0.00 0.00 0.00 0.00 0.00 0.00 0.00 0.00 0.00 0.00 0.00 0.00 0.26 0.00 0.00 0.00 0.11 0.00 0.00 0.00 0.00 0.00 0.00 0.00 0.00
0.00 0.00 0.00 0.00 0.00 0.01 0.01 0.00 0.00 0.00 0.00 0.01 0.00 0.00 0.00 0.00 0.00 0.00 0.00 0.00 0.00 0.01 0.00 0.00 0.00 0.00 0.00 0.00 0.01 0.00 0.01 0.00 0.00 0.01 0.01 0.00 0.01 0.01 0.01 0.01 0.01 0.01 0.41 0.81 0.13 1.41 1.38 1.78 0.66 0.01 0.02 0.00 0.00 0.00 0.00 0.00 0.00 0.00 0.00 0.00 0.00 0.00 0.00
0.00 0.00 0.00 0.00 0.00 0.00 0.00 0.00 0.00 0.00 0.00 0.00 0.00 0.00 0.00 0.00 0.00 0.00 0.00 0.00 0.00 0.00 0.00 0.00 0.00 0.00 0.00 0.00 0.00 0.01 0.01 0.01 0.01 0.00 0.00 0.00 0.00 0.01 0.02 0.02 0.01 0.01 0.00 0.00 0.00 0.00 0.00 0.00 0.00 0.00 0.10 0.02 0.00 0.00 0.00 0.00 0.00 0.00 0.00 0.00 0.00 0.00 0.00
0.00 0.00 0.00 0.00 0.00 0.00 0.00 0.00 0.00 0.00 0.00 0.00 0.00 0.00 0.00 0.00 0.00 0.00 0.00 0.00 0.00 0.00 0.00 0.00 0.00 0.00 0.00 0.01 0.01 0.00 0.00 0.00 0.00 0.00 0.00 0.00 0.00 0.00 0.01 0.02 0.03 0.03 0.01 0.01 0.01 0.01 0.01 0.00 0.00 0.00 0.16 0.53 0.01 0.00 0.00 0.00 0.02 0.00 0.00 0.00 0.00 0.00 0.00
0.00 0.00 0.00 0.00 0.00 0.00 0.00 0.00 0.00 0.00 0.00 0.00 0.00 0.00 0.00 0.00 0.00 0.00 0.00 0.00 0.00 0.00 0.00 0.00 0.00 0.01 0.01 0.01 0.02 0.01 0.01 0.00 0.00 0.00 0.01 0.01 0.00 0.00 0.01 0.02 0.03 0.05 0.04 0.02 0.01 0.02 0.03 0.03 0.02 0.01 0.19 0.74 0.03 0.00 0.00 0.01 0.01 0.00 0.00 0.00 0.00 0.00 0.00
0.00 0.00 0.00 0.00 0.00 0.00 0.00 0.00 0.00 0.00 0.00 0.00 0.00 0.00 0.00 0.00 0.00 0.00 0.01 0.00 0.00 0.00 0.00 0.00 0.01 0.01 0.02 0.02 0.02 0.01 0.01 0.00 0.01 0.01 0.00 0.07 0.23 0.24 0.36 0.48 0.40 0.20 0.05 0.04 0.03 0.03 0.03 0.04 0.04 0.09 0.38 0.57 0.21 0.07 0.02 0.01 0.01 0.00 0.00 0.00 0.00 0.00 0.00
0.00 0.00 0.00 0.00 0.00 0.00 0.00 0.00 0.00 0.00 0.00 0.00 0.00 0.00 0.00 0.00 0.01 0.01 0.00 0.00 0.00 0.01 0.00 0.00 0.01 0.01 0.02 0.02 0.02 0.03 0.02 0.03 0.03 0.15 0.01 0.01 0.08 0.10 0.50 0.39 0.45 0.42 0.33 0.29 0.28 0.44 0.36 0.09 0.15 0.21 0.23 0.17 0.17 0.09 0.03 0.02 0.02 0.01 0.00 0.00 0.00 0.00 0.00
0.00 0.00 0.00 0.00 0.00 0.00 0.00 0.00 0.00 0.00 0.00 0.00 0.00 0.00 0.00 0.01 0.01 0.01 0.01 0.00 0.00 0.01 0.02 0.02 0.01 0.01 0.01 0.01 0.01 0.01 0.01 0.04 0.11 0.28 0.19 0.22 0.17 0.31 0.44 0.32 0.40 0.49 0.47 0.36 0.44 0.53 0.48 0.46 0.37 0.31 0.26 0.19 0.10 0.05 0.03 0.04 0.04 0.03 0.02 0.01 0.00 0.00 0.00
0.00 0.00 0.00 0.00 0.00 0.00 0.00 0.00 0.00 0.00 0.00 0.00 0.00 0.00 0.00 0.01 0.01 0.00 0.00 0.00 0.01 0.01 0.01 0.02 0.04 0.05 0.05 0.04 0.03 0.06 0.19 0.05 0.51 0.47 0.59 0.51 0.30 0.24 0.24 0.51 0.42 0.47 0.51 0.40 0.47 0.47 0.50 0.57 0.48 0.32 0.23 0.30 0.23 0.14 0.09 0.08 0.06 0.05 0.03 0.02 0.01 0.01 0.01
0.00 0.00 0.00 0.00 0.00 0.00 0.00 0.00 0.00 0.00 0.00 0.00 0.00 0.00 0.00 0.00 0.01 0.01 0.01 0.00 0.00 0.00 0.00 0.01 0.02 0.02 0.04 0.06 0.09 0.11 0.15 0.22 0.19 0.08 0.14 0.37 0.39 0.43 0.74 0.47 0.69 0.68 0.66 0.80 0.84 0.79 0.60 0.53 0.42 0.40 0.35 0.37 0.27 0.24 0.19 0.13 0.09 0.05 0.03 0.01 0.01 0.01 0.01
0.00 0.00 0.00 0.00 0.00 0.00 0.00 0.00 0.00 0.00 0.00 0.00 0.00 0.00 0.00 0.01 0.01 0.01 0.00 0.00 0.00 0.01 0.01 0.02 0.03 0.01 0.01 0.02 0.05 0.12 0.15 0.18 0.28 0.23 0.28 0.46 0.59 0.90 0.74 0.77 0.69 0.56 0.55 0.71 0.76 0.63 0.60 0.54 0.58 0.48 0.38 0.30 0.25 0.22 0.17 0.10 0.05 0.02 0.00 0.00 0.00 0.00 0.00
0.00 0.00 0.00 0.00 0.00 0.00 0.00 0.00 0.00 0.00 0.00 0.00 0.00 0.00 0.00 0.00 0.00 0.00 0.00 0.00 0.00 0.00 0.00 0.01 0.02 0.06 0.25 0.14 0.15 0.49 0.68 0.67 0.91 1.17 0.76 0.44 0.47 0.74 1.06 0.93 0.52 0.65 0.66 0.65 0.48 0.44 0.43 0.43 0.43 0.42 0.34 0.26 0.19 0.14 0.11 0.07 0.03 0.02 0.01 0.01 0.01 0.00 0.00
0.00 0.00 0.00 0.00 0.00 0.00 0.00 0.00 0.00 0.00 0.00 0.00 0.00 0.00 0.00 0.00 0.00 0.00 0.00 0.00 0.00 0.00 0.00 0.00 0.01 0.04 0.11 0.12 0.13 0.17 0.24 0.22 0.34 0.70 1.11 1.02 0.50 0.31 0.41 0.65 0.67 0.38 0.37 0.32 0.29 0.27 0.25 0.23 0.24 0.23 0.20 0.15 0.13 0.10 0.08 0.06 0.05 0.03 0.02 0.01 0.01 0.00 0.00
0.00 0.00 0.00 0.00 0.00 0.00 0.00 0.00 0.00 0.00 0.00 0.00 0.00 0.00 0.00 0.00 0.00 0.00 0.00 0.00 0.00 0.00 0.00 0.00 0.01 0.02 0.07 0.10 0.13 0.22 0.12 0.30 0.31 0.34 0.67 0.62 0.56 0.34 0.22 0.24 0.21 0.17 0.15 0.15 0.15 0.15 0.14 0.13 0.13 0.15 0.16 0.15 0.13 0.11 0.09 0.06 0.04 0.02 0.01 0.00 0.00 0.00 0.00
MSLP
1012.58 1012.62 1012.46 1012.34 1012.50 1012.70 1012.90 1012.90 1012.86 1012.98 1013.10 1013.26 1013.42 1013.50 1013.70 1013.90 1014.18 1014.38 1014.66 1014.94 1015.22 1015.46 1015.46 1015.62 1015.78 1015.90 1016.18 1016.34 1016.42 1016.50 1016.58 1016.78 1016.94 1017.18 1017.38 1017.42 1017.38 1017.50 1017.70 1017.66 1017.82 1017.94 1017.86 1017.98 1017.94 1018.06 1017.94 1017.86 1017.98 1018.02 1018.02 1018.14 1018.18 1018.22 1018.34 1018.38 1018.50 1018.46 1018.50 1018.54 1018.62 1018.70 1018.70
1012.82 1012.58 1012.46 1012.22 1012.34 1012.42 1012.50 1012.62 1012.66 1012.70 1012.82 1012.90 1013.14 1013.38 1013.46 1013.70 1013.94 1014.30 1014.50 1014.66 1014.82 1015.06 1015.18 1015.38 1015.58 1015.70 1015.82 1016.06 1016.14 1016.38 1016.58 1016.66 1016.74 1016.90 1016.98 1017.22 1017.26 1017.34 1017.30 1017.42 1017.54 1017.70 1017.74 1017.62 1017.62 1017.62 1017.70 1017.74 1017.78 1017.90 1017.98 1017.94 1017.98 1018.02 1018.10 1018.18 1018.26 1018.38 1018.38 1018.46 1018.66 1018.74 1018.66
1012.94 1012.58 1012.46 1012.30 1012.26 1012.26 1012.34 1012.46 1012.50 1012.46 1012.58 1012.74 1013.02 1013.38 1013.58 1013.62 1013.66 1013.94 1014.26 1014.54 1014.82 1014.90 1014.90 1015.10 1015.26 1015.42 1015.54 1015.74 1016.02 1016.22 1016.34 1016.42 1016.62 1016.78 1016.98 1016.98 1017.06 1017.02 1017.02 1017.18 1017.26 1017.30 1017.26 1017.26 1017.46 1017.50 1017.42 1017.58 1017.62 1017.70 1017.78 1017.86 1017.78 1017.90 1017.98 1018.06 1018.14 1018.22 1018.30 1018.42 1018.54 1018.58 1018.70
1013.02 1012.86 1012.54 1012.22 1012.10 1012.02 1012.06 1012.18 1012.42 1012.42 1012.58 1012.90 1013.22 1013.42 1013.66 1013.82 1013.66 1013.78 1013.90 1014.10 1014.50 1014.74 1014.98 1014.86 1015.02 1015.18 1015.30 1015.58 1015.78 1015.98 1016.14 1016.18 1016.22 1016.30 1016.38 1016.46 1016.62 1016.66 1016.90 1017.06 1017.14 1017.10 1017.30 1017.34 1017.14 1017.22 1017.22 1017.34 1017.50 1017.62 1017.74 1017.86 1017.90 1017.82 1017.86 1018.02 1018.02 1018.10 1018.14 1018.26 1018.38 1018.30 1018.42
1012.90 1012.66 1012.62 1012.58 1012.46 1012.38 1012.26 1012.26 1012.26 1012.50 1012.74 1012.70 1012.74 1012.70 1012.86 1013.10 1013.38 1013.70 1013.90 1013.82 1013.98 1014.26 1014.26 1014.38 1014.50 1014.74 1014.94 1015.10 1015.34 1015.46 1015.66 1015.78 1015.98 1015.98 1016.06 1016.14 1016.30 1016.46 1016.70 1016.78 1016.86 1016.98 1016.98 1016.94 1016.98 1017.22 1017.34 1017.42 1017.42 1017.50 1017.62 1017.74 1017.82 1017.82 1017.94 1017.90 1017.98 1018.02 1018.10 1018.14 1018.30 1018.18 1018.22
1013.26 1013.18 1012.94 1012.70 1012.50 1012.30 1012.14 1011.98 1012.10 1012.34 1012.58 1012.98 1013.26 1013.22 1012.82 1012.78 1012.78 1013.18 1013.50 1013.86 1014.18 1014.10 1014.10 1014.26 1014.42 1014.54 1014.86 1014.82 1014.94 1015.10 1015.22 1015.42 1015.58 1015.74 1015.90 1016.02 1016.26 1016.42 1016.50 1016.54 1016.62 1016.70 1016.82 1016.86 1016.74 1016.86 1017.02 1017.18 1017.22 1017.26 1017.42 1017.42 1017.54 1017.62 1017.58 1017.70 1017.66 1017.70 1017.78 1017.90 1017.98 1017.94 1017.94
1013.54 1013.42 1013.30 1013.02 1012.78 1012.50 1012.26 1012.22 1012.30 1012.46 1012.54 1012.70 1012.62 1012.38 1012.42 1012.62 1012.70 1012.70 1012.94 1013.38 1013.74 1014.18 1014.26 1014.34 1014.26 1014.34 1014.54 1014.58 1014.78 1014.94 1015.18 1015.22 1015.38 1015.50 1015.54 1015.74 1015.86 1016.10 1016.18 1016.22 1016.34 1016.38 1016.38 1016.42 1016.70 1016.66 1016.86 1017.02 1017.10 1017.18 1017.22 1017.30 1017.38 1017.46 1017.54 1017.62 1017.58 1017.42 1017.54 1017.74 1017.94 1017.90 1017.94
1013.54 1013.46 1013.22 1013.06 1012.94 1012.78 1012.58 1012.42 1012.34 1012.38 1012.42 1012.42 1012.54 1012.62 1012.62 1012.42 1012.50 1012.70 1012.82 1012.86 1013.14 1013.50 1013.82 1014.02 1014.14 1014.26 1014.34 1014.42 1014.54 1014.74 1014.82 1014.90 1014.94 1015.10 1015.30 1015.50 1015.62 1015.86 1015.86 1015.98 1016.06 1016.10 1016.22 1016.50 1016.42 1016.46 1016.66 1016.78 1016.78 1016.82 1017.02 1017.18 1017.26 1017.26 1017.18 1017.26 1017.38 1017.34 1017.42 1017.74 1017.90 1017.90 1017.66
1013.74 1013.58 1013.50 1013.26 1013.06 1012.82 1012.74 1012.66 1012.58 1012.50 1012.50 1012.42 1012.38 1012.34 1012.34 1012.34 1012.38 1012.46 1012.58 1012.74 1012.94 1013.22 1013.34 1013.34 1013.54 1013.74 1014.06 1014.30 1014.50 1014.62 1014.54 1014.66 1014.82 1014.90 1015.10 1015.30 1015.38 1015.50 1015.50 1015.54 1015.66 1015.70 1016.02 1016.14 1016.14 1016.10 1016.30 1016.42 1016.54 1016.78 1016.90 1017.02 1017.06 1017.10 1017.14 1017.22 1017.30 1017.26 1017.42 1017.62 1017.74 1017.82 1017.66
1014.06 1013.74 1013.46 1013.26 1013.10 1012.98 1012.86 1012.74 1012.66 1012.62 1012.66 1012.70 1012.62 1012.42 1012.34 1012.26 1012.26 1012.30 1012.38 1012.54 1012.74 1013.06 1013.10 1013.14 1013.26 1013.46 1013.78 1014.06 1014.22 1014.30 1014.46 1014.62 1014.58 1014.70 1014.86 1015.06 1015.06 1015.18 1015.18 1015.14 1015.26 1015.30 1015.58 1015.74 1015.74 1015.94 1015.94 1016.10 1016.30 1016.54 1016.78 1016.94 1016.98 1017.06 1017.14 1017.18 1017.18 1017.22 1017.26 1017.38 1017.38 1017.46 1017.50
1014.18 1013.90 1013.58 1013.38 1013.38 1013.34 1013.06 1012.98 1012.94 1012.90 1012.78 1012.70 1012.66 1012.62 1012.50 1012.42 1012.34 1012.34 1012.38 1012.38 1012.54 1012.62 1012.62 1012.78 1012.82 1013.14 1013.46 1013.74 1014.02 1014.06 1014.26 1014.38 1014.38 1014.54 1014.70 1014.78 1014.70 1014.82 1014.82 1014.90 1014.94 1015.02 1015.22 1015.38 1015.58 1015.58 1015.70 1015.94 1016.02 1016.38 1016.58 1016.82 1016.90 1016.98 1017.02 1017.02 1017.02 1017.10 1017.10 1017.02 1016.98 1017.06 1017.10
1014.34 1014.26 1014.10 1013.78 1013.54 1013.42 1013.34 1013.14 1012.90 1012.86 1012.78 1012.70 1012.62 1012.62 1012.70 1012.70 1012.58 1012.46 1012.46 1012.38 1012.26 1012.46 1012.62 1012.66 1012.66 1012.78 1013.14 1013.42 1013.82 1013.94 1013.98 1014.02 1014.14 1014.26 1014.34 1014.46 1014.50 1014.50 1014.50 1014.54 1014.66 1014.74 1014.86 1014.98 1015.30 1015.38 1015.46 1015.74 1015.90 1016.06 1016.34 1016.42 1016.54 1016.58 1016.66 1016.70 1016.78 1016.90 1016.94 1016.90 1016.90 1016.98 1016.98
1014.42 1014.34 1014.22 1014.10 1013.86 1013.58 1013.34 1013.22 1013.10 1012.90 1012.70 1012.54 1012.50 1012.46 1012.58 1012.74 1012.78 1012.74 1012.66 1012.54 1012.34 1012.22 1012.38 1012.50 1012.82 1013.14 1013.18 1013.22 1013.38 1013.58 1013.66 1013.66 1013.74 1013.78 1013.90 1014.02 1014.14 1014.14 1014.22 1014.30 1014.30 1014.46 1014.62 1014.62 1014.86 1015.14 1015.34 1015.34 1015.66 1015.74 1015.94 1016.06 1016.14 1016.26 1016.34 1016.50 1016.58 1016.78 1017.02 1017.58 1017.74 1017.46 1017.18
1014.34 1014.22 1014.18 1014.02 1013.86 1013.74 1013.62 1013.38 1013.22 1013.06 1012.86 1012.66 1012.42 1012.26 1012.26 1012.34 1012.46 1012.66 1012.70 1012.74 1012.50 1012.30 1012.26 1012.26 1012.54 1012.86 1013.10 1013.22 1013.30 1013.30 1013.34 1013.26 1013.22 1013.38 1013.54 1013.62 1013.78 1013.98 1014.06 1014.10 1014.14 1014.22 1014.26 1014.38 1014.66 1014.86 1014.94 1015.10 1015.26 1015.38 1015.42 1015.62 1015.82 1015.90 1016.02 1016.26 1016.50 1016.90 1017.82 1018.02 1017.58 1017.26 1017.14
1014.58 1014.54 1014.42 1014.26 1014.10 1013.98 1013.82 1013.62 1013.42 1013.26 1013.06 1012.78 1012.58 1012.50 1012.34 1012.26 1012.26 1012.34 1012.38 1012.34 1012.38 1012.42 1012.30 1012.14 1012.34 1012.62 1012.86 1013.02 1013.14 1013.10 1012.94 1012.94 1013.02 1013.14 1013.34 1013.50 1013.70 1013.90 1014.02 1014.06 1014.02 1014.06 1014.18 1014.30 1014.42 1014.38 1014.50 1014.62 1014.74 1015.02 1015.26 1015.34 1015.54 1015.70 1015.78 1015.98 1016.26 1016.62 1016.90 1017.18 1017.38 1017.50 1017.54
1014.66 1014.50 1014.34 1014.26 1014.18 1014.14 1014.06 1013.86 1013.70 1013.58 1013.30 1013.06 1012.94 1012.70 1012.50 1012.34 1012.30 1012.30 1012.30 1012.22 1012.18 1012.22 1012.10 1012.06 1012.22 1012.42 1012.54 1012.70 1012.66 1012.58 1012.62 1012.74 1012.82 1012.94 1013.06 1013.38 1013.58 1013.70 1013.74 1013.82 1013.90 1013.94 1014.06 1014.14 1014.18 1014.30 1014.38 1014.50 1014.58 1014.70 1014.90 1015.18 1015.34 1015.38 1015.54 1015.66 1015.78 1016.06 1016.50 1016.70 1016.78 1016.82 1016.94
1014.70 1014.46 1014.14 1013.94 1014.02 1014.10 1014.06 1013.90 1013.82 1013.74 1013.74 1013.58 1013.30 1013.02 1012.74 1012.54 1012.30 1012.18 1012.22 1012.18 1012.06 1012.02 1011.82 1011.82 1012.02 1012.06 1012.18 1012.30 1012.18 1012.22 1012.30 1012.50 1012.66 1012.74 1012.94 1012.98 1013.18 1013.34 1013.58 1013.66 1013.66 1013.78 1013.90 1013.98 1014.02 1014.14 1014.26 1014.38 1014.58 1014.62 1014.58 1014.78 1014.94 1015.10 1015.18 1015.34 1015.58 1016.02 1016.26 1016.30 1016.34 1016.62 1017.10
1014.62 1014.30 1014.10 1013.94 1013.86 1013.82 1013.86 1013.86 1013.82 1013.78 1013.74 1013.58 1013.30 1013.06 1012.90 1012.74 1012.46 1012.30 1012.26 1012.06 1012.02 1011.86 1011.70 1011.78 1011.78 1011.82 1011.78 1011.74 1011.78 1011.90 1012.06 1012.22 1012.34 1012.58 1012.66 1012.70 1012.86 1012.98 1013.14 1013.34 1013.54 1013.70 1013.74 1013.78 1013.86 1013.94 1013.94 1014.18 1014.30 1014.38 1014.38 1014.42 1014.54 1014.74 1014.94 1015.18 1016.06 1016.14 1016.22 1016.46 1017.06 1017.14 1016.86
1014.50 1014.18 1013.94 1013.94 1013.94 1013.90 1013.82 1013.82 1013.74 1013.58 1013.46 1013.34 1013.18 1013.02 1012.78 1012.62 1012.62 1012.50 1012.18 1012.02 1011.78 1011.66 1011.74 1011.74 1011.70 1011.66 1011.62 1011.46 1011.50 1011.58 1011.66 1011.82 1012.06 1012.22 1012.38 1012.46 1012.50 1012.58 1012.78 1013.06 1013.34 1013.46 1013.58 1013.62 1013.46 1013.54 1013.86 1013.98 1014.10 1014.18 1014.14 1014.30 1014.62 1014.86 1014.86 1015.34 1016.06 1016.22 1016.30 1016.22 1015.98 1016.30 1016.50
1014.02 1013.74 1013.66 1013.54 1013.54 1013.62 1013.54 1013.42 1013.38 1013.30 1013.22 1013.14 1012.94 1012.78 1012.66 1012.54 1012.50 1012.38 1012.22 1012.06 1011.78 1011.70 1011.66 1011.70 1011.62 1011.54 1011.42 1011.30 1011.26 1011.30 1011.34 1011.50 1011.70 1011.90 1011.94 1011.98 1012.18 1012.34 1012.54 1012.74 1012.94 1012.94 1012.94 1013.06 1013.22 1013.46 1013.62 1013.66 1013.86 1013.90 1014.06 1014.26 1014.50 1014.86 1015.06 1015.46 1016.18 1016.38 1016.42 1016.14 1015.74 1015.98 1016.50
1013.98 1013.78 1013.62 1013.50 1013.42 1013.34 1013.30 1013.26 1013.22 1013.10 1013.06 1013.02 1012.98 1012.90 1012.86 1012.74 1012.58 1012.46 1012.42 1012.14 1012.06 1011.74 1011.62 1011.54 1011.58 1011.46 1011.30 1011.22 1011.02 1010.98 1011.06 1011.18 1011.34 1011.50 1011.54 1011.66 1011.86 1012.10 1012.34 1012.42 1012.54 1012.70 1012.82 1012.90 1013.06 1013.26 1013.42 1013.50 1013.74 1013.86 1014.10 1014.34 1014.54 1014.90 1015.22 1015.74 1016.22 1016.30 1016.46 1016.46 1016.34 1016.14 1016.10
1013.94 1013.78 1013.70 1013.34 1013.30 1013.30 1013.22 1013.18 1013.18 1013.18 1013.18 1012.98 1012.94 1012.90 1012.82 1012.82 1012.62 1012.70 1012.58 1012.30 1012.18 1011.94 1011.70 1011.50 1011.38 1011.26 1011.18 1011.14 1010.98 1010.86 1010.74 1010.86 1011.02 1011.14 1011.22 1011.38 1011.62 1011.94 1012.18 1012.26 1012.30 1012.50 1012.50 1012.70 1012.82 1012.82 1012.98 1013.26 1013.46 1013.98 1014.34 1014.54 1014.74 1015.10 1015.38 1015.74 1016.10 1016.02 1016.10 1016.22 1016.30 1016.34 1016.06
1013.58 1013.54 1013.38 1013.18 1013.06 1013.06 1012.90 1012.90 1013.02 1013.14 1013.18 1013.10 1012.90 1012.78 1012.70 1012.62 1012.58 1012.58 1012.50 1012.38 1012.18 1011.94 1011.74 1011.50 1011.42 1011.18 1010.98 1010.94 1010.82 1010.70 1010.50 1010.46 1010.66 1010.86 1010.98 1011.10 1011.42 1011.62 1011.78 1011.94 1011.98 1011.98 1011.98 1012.50 1012.82 1013.22 1013.42 1013.58 1013.82 1014.02 1014.38 1014.66 1014.82 1015.06 1015.42 1015.70 1015.98 1015.94 1015.82 1015.78 1015.86 1015.94 1015.42
1013.30 1013.18 1013.06 1012.94 1012.78 1012.78 1012.82 1012.90 1013.14 1013.10 1013.10 1012.94 1012.74 1012.58 1012.50 1012.42 1012.34 1012.30 1012.34 1012.22 1012.06 1011.98 1011.78 1011.54 1011.30 1010.98 1010.82 1010.62 1010.42 1010.38 1010.30 1010.22 1010.26 1010.50 1010.62 1010.86 1011.10 1011.22 1011.30 1011.38 1011.50 1011.66 1011.62 1012.10 1012.70 1013.22 1013.58 1013.82 1014.14 1014.38 1014.50 1014.70 1014.90 1014.98 1015.34 1015.70 1015.94 1015.94 1015.70 1015.58 1015.58 1015.30 1015.30
1013.06 1012.94 1012.90 1012.90 1012.98 1013.06 1013.02 1013.22 1013.22 1013.06 1012.82 1012.78 1012.78 1012.50 1012.30 1012.18 1012.14 1012.14 1012.14 1011.94 1011.82 1011.66 1011.62 1011.38 1011.02 1010.66 1010.50 1010.30 1010.06 1009.94 1009.94 1009.94 1010.02 1010.10 1010.26 1010.54 1010.66 1010.78 1011.10 1011.30 1011.46 1011.50 1011.62 1011.86 1012.34 1013.06 1013.50 1013.86 1014.30 1014.62 1014.82 1014.94 1015.10 1015.30 1015.38 1015.62 1015.86 1015.86 1015.62 1015.50 1015.42 1015.34 1015.66
1013.06 1012.98 1012.90 1012.74 1012.78 1012.90 1013.06 1013.10 1013.06 1012.90 1012.90 1012.90 1012.66 1012.26 1012.10 1011.98 1011.94 1011.94 1011.82 1011.62 1011.34 1011.30 1011.26 1011.02 1010.62 1010.22 1009.90 1009.70 1009.66 1009.66 1009.66 1009.66 1009.78 1009.78 1009.86 1010.06 1010.26 1010.46 1010.74 1010.98 1011.42 1011.78 1012.06 1012.22 1012.50 1013.18 1013.54 1013.82 1014.22 1014.70 1015.06 1015.18 1015.26 1015.34 1015.38 1015.58 1015.70 1015.82 1015.62 1015.50 1015.54 1015.58 1015.70
1012.82 1012.78 1012.86 1012.94 1013.02 1013.14 1013.10 1013.10 1013.06 1013.02 1012.90 1012.70 1012.38 1012.18 1011.94 1011.86 1011.86 1011.78 1011.50 1011.26 1011.06 1010.82 1010.46 1010.14 1010.02 1009.90 1009.74 1009.46 1009.22 1009.14 1009.26 1009.34 1009.42 1009.54 1009.54 1009.66 1010.02 1010.30 1010.66 1010.98 1011.38 1011.70 1012.14 1012.46 1012.78 1013.22 1013.66 1013.94 1014.26 1014.74 1015.22 1015.30 1015.34 1015.42 1015.54 1015.58 1015.70 1015.90 1015.74 1015.70 1015.74 1015.82 1015.86
1012.70 1012.70 1012.74 1012.94 1013.18 1013.26 1013.18 1013.10 1013.06 1012.98 1012.78 1012.50 1012.34 1012.06 1011.90 1011.86 1011.90 1011.66 1011.38 1011.14 1010.90 1010.34 1009.82 1009.58 1009.42 1009.42 1009.50 1009.34 1009.10 1008.86 1008.78 1008.86 1009.02 1009.14 1009.34 1009.54 1009.86 1010.38 1010.90 1011.10 1011.30 1011.62 1011.98 1012.34 1012.78 1013.30 1013.82 1014.10 1014.34 1014.62 1015.06 1015.34 1015.46 1015.66 1015.82 1015.86 1015.78 1015.90 1016.10 1016.06 1016.10 1016.10 1016.06
1013.02 1013.18 1013.38 1013.42 1013.34 1013.26 1013.26 1013.26 1013.18 1013.10 1012.90 1012.54 1012.26 1012.06 1011.90 1011.94 1011.90 1011.62 1011.26 1011.06 1010.50 1009.94 1009.58 1009.26 1008.94 1008.82 1008.90 1008.98 1008.90 1008.70 1008.58 1008.62 1008.70 1008.94 1009.06 1009.38 1009.66 1010.18 1011.02 1011.34 1011.62 1012.02 1012.30 1012.50 1012.86 1013.34 1013.98 1014.38 1014.74 1015.10 1015.58 1015.94 1016.10 1016.18 1016.22 1016.18 1016.14 1016.10 1016.30 1016.42 1016.42 1016.50 1016.58
1013.18 1013.34 1013.30 1013.22 1013.26 1013.34 1013.34 1013.42 1013.26 1013.14 1012.94 1012.58 1012.34 1012.10 1012.02 1012.02 1011.90 1011.62 1011.34 1011.06 1010.42 1009.98 1009.50 1009.06 1008.66 1008.58 1008.70 1008.70 1008.58 1008.42 1008.38 1008.42 1008.62 1008.74 1008.86 1009.18 1009.66 1010.30 1011.02 1011.54 1011.82 1012.14 1012.46 1012.78 1013.14 1013.62 1014.18 1014.70 1015.06 1015.62 1016.06 1016.42 1016.70 1016.70 1016.54 1016.46 1016.38 1016.46 1016.46 1016.66 1016.82 1016.98 1017.18
1013.38 1013.54 1013.54 1013.66 1013.54 1013.42 1013.34 1013.42 1013.38 1013.22 1012.94 1012.66 1012.46 1012.22 1012.06 1011.94 1011.90 1011.70 1011.46 1010.94 1010.38 1010.06 1009.62 1009.10 1008.62 1008.54 1008.58 1008.50 1008.34 1008.26 1008.18 1008.34 1008.54 1008.66 1008.82 1009.10 1009.58 1010.30 1010.82 1011.26 1011.58 1012.22 1012.62 1012.82 1013.38 1013.90 1014.46 1015.02 1015.34 1015.62 1015.94 1016.22 1016.70 1016.94 1016.98 1016.90 1016.78 1016.78 1016.90 1017.06 1017.26 1017.42 1017.58
1013.54 1013.54 1013.58 1013.50 1013.50 1013.46 1013.38 1013.34 1013.34 1013.22 1013.06 1012.74 1012.46 1012.26 1012.10 1011.94 1011.82 1011.78 1011.42 1010.82 1010.46 1010.10 1009.70 1009.34 1008.98 1008.70 1008.50 1008.26 1008.22 1008.22 1008.22 1008.58 1008.90 1008.90 1008.94 1009.22 1009.50 1009.86 1010.18 1010.62 1011.22 1011.82 1012.58 1012.98 1013.34 1013.86 1014.34 1015.22 1015.78 1016.02 1016.22 1016.54 1016.94 1017.18 1017.34 1017.34 1017.26 1017.26 1017.30 1017.38 1017.58 1017.82 1018.02
1013.70 1013.82 1013.82 1013.82 1013.74 1013.54 1013.42 1013.46 1013.42 1013.38 1013.14 1012.98 1012.62 1012.30 1012.02 1011.90 1011.70 1011.50 1011.14 1010.82 1010.46 1010.14 1009.86 1009.66 1009.50 1009.42 1009.34 1009.34 1009.26 1009.06 1008.90 1009.02 1009.30 1009.70 1009.90 1010.10 1010.26 1010.42 1010.54 1010.78 1011.18 1011.54 1012.14 1012.86 1013.46 1013.98 1014.30 1014.86 1015.50 1016.26 1016.54 1016.70 1017.10 1017.38 1017.54 1017.50 1017.62 1017.82 1017.86 1017.82 1017.98 1018.18 1018.34
1013.78 1013.82 1013.82 1013.78 1013.70 1013.58 1013.54 1013.58 1013.58 1013.38 1013.14 1013.02 1012.74 1012.42 1012.18 1011.90 1011.70 1011.38 1011.10 1010.78 1010.46 1010.22 1010.06 1010.02 1009.94 1009.90 1009.90 1009.82 1009.78 1009.78 1009.66 1009.82 1010.06 1010.18 1010.62 1011.06 1011.26 1011.70 1012.10 1011.98 1011.90 1012.30 1013.02 1013.62 1013.78 1013.90 1014.58 1015.06 1015.42 1015.86 1016.50 1017.10 1017.06 1016.98 1017.78 1018.02 1018.06 1018.22 1018.26 1018.34 1018.38 1018.58 1018.62
1013.82 1013.86 1013.82 1013.78 1013.74 1013.62 1013.70 1013.62 1013.54 1013.38 1013.18 1013.02 1012.74 1012.42 1012.18 1011.98 1011.70 1011.38 1011.14 1010.86 1010.62 1010.54 1010.54 1010.54 1010.42 1010.30 1010.26 1010.18 1010.14 1010.38 1010.58 1010.94 1011.06 1011.30 1011.42 1011.74 1012.30 1012.86 1013.66 1014.10 1013.22 1012.90 1013.54 1014.14 1014.26 1014.50 1014.78 1015.10 1015.66 1015.94 1016.34 1017.02 1017.14 1016.50 1017.70 1017.98 1017.98 1018.26 1018.70 1018.74 1018.74 1018.70 1018.78
1013.78 1013.82 1013.86 1013.74 1013.66 1013.70 1013.70 1013.62 1013.54 1013.46 1013.30 1013.10 1012.70 1012.34 1012.18 1011.98 1011.78 1011.54 1011.26 1011.02 1010.94 1010.94 1011.06 1011.02 1010.98 1010.82 1010.86 1010.78 1010.86 1011.06 1011.10 1011.34 1011.70 1012.02 1012.14 1012.10 1012.46 1013.02 1013.94 1015.38 1015.34 1013.66 1013.38 1014.46 1015.10 1015.18 1015.50 1015.42 1015.58 1016.02 1016.50 1017.02 1017.34 1017.14 1016.78 1017.26 1017.90 1018.62 1018.90 1019.02 1019.02 1019.02 1018.94
1013.82 1013.86 1013.82 1013.70 1013.74 1013.78 1013.70 1013.62 1013.54 1013.46 1013.42 1013.14 1012.66 1012.38 1012.14 1012.10 1011.98 1011.86 1011.62 1011.42 1011.34 1011.38 1011.50 1011.42 1011.42 1011.42 1011.34 1011.30 1011.38 1011.50 1011.74 1012.14 1012.42 1012.70 1013.02 1013.30 1013.46 1013.82 1014.62 1015.74 1016.50 1015.70 1015.14 1015.30 1016.06 1016.38 1016.54 1016.22 1015.90 1016.06 1016.34 1016.62 1017.14 1017.66 1017.70 1018.02 1018.50 1018.74 1018.98 1019.14 1019.18 1019.18 1019.18
1013.74 1013.66 1013.62 1013.58 1013.66 1013.74 1013.70 1013.70 1013.70 1013.70 1013.62 1013.26 1012.94 1012.62 1012.30 1012.22 1012.26 1012.22 1011.98 1011.78 1011.74 1011.74 1011.82 1011.86 1011.90 1012.14 1012.22 1012.14 1012.06 1011.98 1012.10 1012.54 1013.10 1013.62 1013.54 1013.74 1014.18 1014.50 1014.98 1015.34 1015.54 1016.10 1016.46 1016.62 1016.90 1017.38 1017.46 1016.86 1016.62 1016.70 1016.74 1016.70 1016.78 1017.18 1018.06 1018.50 1018.70 1018.86 1019.06 1019.22 1019.26 1019.30 1019.34
Thickness
5777 5778 5780 5781 5781 5780 5780 5781 5782 5781 5780 5779 5779 5778 5777 5776 5775 5773 5772 5771 5770 5769 5770 5770 5769 5769 5767 5766 5766 5766 5765 5765 5764 5763 5763 5763 5764 5764 5763 5763 5763 5762 5764 5764 5765 5766 5768 5769 5770 5770 5770 5771 5771 5771 5771 5771 5771 5771 5771 5771 5772 5772 5772
5775 5777 5779 5780 5781 5781 5780 5781 5782 5782 5782 5781 5780 5779 5778 5777 5775 5773 5771 5770 5770 5770 5771 5771 5770 5769 5769 5767 5766 5766 5766 5765 5765 5764 5764 5764 5764 5765 5765 5765 5765 5764 5766 5767 5768 5768 5769 5770 5770 5771 5771 5772 5772 5772 5772 5772 5772 5772 5773 5772 5772 5772 5771
5772 5775 5778 5779 5780 5780 5780 5781 5781 5782 5782 5780 5779 5777 5775 5776 5775 5774 5772 5771 5770 5770 5771 5771 5770 5770 5770 5769 5768 5766 5766 5766 5766 5765 5765 5765 5765 5766 5767 5767 5766 5767 5768 5768 5769 5770 5771 5771 5771 5771 5771 5772 5772 5773 5772 5773 5773 5773 5773 5773 5773 5773 5771
5769 5773 5775 5777 5779 5779 5779 5780 5779 5780 5781 5780 5780 5778 5776 5776 5775 5774 5773 5772 5771 5770 5770 5771 5771 5772 5771 5770 5769 5767 5767 5766 5767 5767 5767 5768 5768 5768 5768 5767 5767 5768 5768 5769 5771 5771 5772 5772 5772 5772 5772 5772 5772 5773 5773 5773 5773 5773 5773 5773 5772 5773 5773
5766 5769 5772 5773 5775 5776 5777 5778 5779 5779 5778 5778 5779 5778 5778 5778 5777 5776 5775 5774 5773 5771 5772 5773 5773 5773 5772 5772 5771 5770 5770 5769 5769 5769 5769 5769 5769 5768 5768 5768 5769 5769 5769 5771 5772 5773 5772 5772 5772 5772 5772 5772 5772 5773 5773 5772 5774 5773 5773 5773 5773 5773 5774
5761 5763 5766 5769 5772 5774 5776 5778 5778 5778 5776 5775 5775 5776 5778 5779 5778 5778 5776 5775 5773 5771 5772 5772 5773 5773 5772 5773 5773 5772 5772 5771 5770 5771 5770 5770 5770 5769 5769 5769 5770 5771 5771 5773 5773 5774 5773 5772 5772 5773 5773 5774 5773 5774 5774 5774 5775 5775 5775 5774 5774 5774 5774
5757 5758 5761 5764 5768 5770 5773 5775 5776 5776 5775 5774 5775 5777 5779 5779 5780 5780 5778 5776 5774 5772 5771 5771 5771 5772 5772 5772 5773 5772 5772 5772 5772 5772 5772 5772 5771 5771 5772 5772 5772 5773 5773 5774 5774 5775 5774 5773 5774 5774 5774 5775 5774 5774 5775 5774 5775 5776 5776 5774 5773 5774 5774
5752 5754 5757 5759 5763 5766 5768 5771 5772 5772 5773 5774 5775 5776 5777 5779 5780 5780 5780 5779 5776 5774 5773 5773 5772 5772 5772 5772 5772 5772 5773 5773 5774 5774 5773 5773 5773 5772 5773 5774 5774 5775 5775 5774 5775 5776 5775 5775 5775 5776 5775 5775 5774 5775 5775 5775 5775 5775 5775 5773 5772 5773 5774
5749 5751 5753 5755 5759 5762 5764 5767 5768 5769 5771 5771 5773 5775 5776 5777 5779 5779 5780 5779 5778 5776 5776 5775 5775 5774 5773 5772 5772 5772 5773 5773 5774 5775 5774 5774 5774 5774 5775 5776 5777 5778 5777 5776 5777 5778 5777 5777 5776 5776 5775 5774 5774 5775 5775 5774 5774 5774 5774 5773 5773 5773 5774
5744 5747 5750 5752 5754 5757 5759 5762 5765 5766 5767 5768 5770 5772 5774 5775 5777 5778 5779 5779 5778 5777 5777 5777 5776 5776 5775 5773 5772 5772 5772 5774 5775 5775 5775 5775 5776 5776 5777 5778 5779 5780 5779 5778 5779 5778 5778 5778 5777 5776 5775 5773 5773 5773 5773 5773 5774 5774 5774 5775 5775 5775 5775
5740 5742 5746 5748 5750 5752 5754 5757 5759 5761 5763 5764 5767 5768 5770 5772 5773 5775 5777 5777 5778 5777 5777 5778 5777 5777 5776 5774 5773 5773 5773 5774 5774 5775 5776 5776 5777 5777 5778 5780 5781 5781 5781 5780 5779 5779 5778 5778 5777 5776 5774 5773 5773 5773 5773 5774 5774 5774 5774 5776 5776 5776 5776
5736 5738 5740 5742 5745 5748 5750 5753 5755 5757 5760 5761 5763 5764 5765 5766 5768 5770 5773 5775 5776 5776 5775 5776 5777 5776 5775 5774 5773 5773 5774 5775 5775 5776 5776 5777 5777 5778 5779 5781 5782 5782 5782 5781 5780 5779 5779 5778 5777 5776 5775 5774 5774 5774 5774 5774 5774 5774 5775 5774 5775 5775 5775
5734 5736 5737 5739 5742 5744 5747 5749 5751 5754 5757 5759 5761 5763 5763 5762 5763 5765 5767 5771 5774 5775 5774 5776 5775 5774 5774 5774 5773 5773 5774 5776 5776 5777 5777 5778 5778 5779 5780 5781 5783 5783 5782 5782 5781 5780 5779 5778 5777 5777 5776 5775 5776 5775 5775 5775 5773 5772 5770 5769 5770 5772 5774
5732 5733 5735 5737 5739 5740 5743 5746 5747 5750 5753 5756 5759 5761 5762 5762 5762 5763 5764 5767 5770 5772 5774 5775 5775 5773 5772 5772 5772 5773 5774 5776 5777 5777 5778 5778 5779 5779 5780 5781 5782 5782 5782 5782 5782 5780 5780 5779 5778 5778 5778 5777 5777 5776 5776 5774 5772 5770 5768 5767 5769 5771 5771
5729 5730 5732 5733 5735 5737 5738 5741 5744 5745 5748 5752 5754 5756 5759 5761 5761 5762 5763 5764 5766 5768 5771 5773 5774 5773 5772 5772 5772 5773 5774 5775 5776 5777 5777 5777 5778 5778 5778 5779 5781 5781 5781 5781 5781 5781 5780 5780 5780 5778 5777 5777 5776 5776 5775 5774 5774 5773 5771 5770 5770 5769 5770
5726 5727 5729 5731 5731 5732 5734 5735 5738 5740 5742 5746 5748 5751 5754 5756 5759 5760 5761 5763 5764 5766 5769 5771 5772 5772 5772 5773 5775 5775 5775 5774 5775 5775 5776 5776 5776 5777 5778 5778 5779 5780 5780 5780 5780 5780 5780 5779 5779 5779 5778 5777 5776 5776 5776 5776 5777 5776 5772 5772 5773 5772 5770
5723 5725 5727 5729 5729 5730 5731 5732 5733 5735 5737 5740 5743 5746 5749 5752 5755 5757 5758 5760 5761 5764 5767 5769 5771 5772 5773 5774 5776 5776 5775 5775 5775 5774 5775 5775 5776 5776 5777 5777 5778 5779 5779 5779 5780 5779 5779 5778 5778 5778 5778 5778 5777 5777 5777 5777 5776 5773 5772 5772 5772 5769 5767
5720 5722 5725 5727 5727 5728 5729 5729 5730 5732 5734 5736 5739 5743 5745 5747 5751 5753 5755 5757 5759 5762 5764 5766 5769 5771 5773 5775 5776 5776 5776 5776 5776 5775 5775 5775 5775 5776 5776 5776 5776 5777 5777 5778 5779 5779 5779 5778 5777 5777 5778 5779 5778 5777 5778 5776 5772 5770 5770 5770 5767 5765 5765
5718 5721 5723 5724 5725 5726 5727 5727 5729 5731 5732 5735 5737 5740 5743 5745 5747 5749 5752 5755 5757 5759 5761 5763 5766 5768 5771 5774 5776 5776 5777 5776 5776 5775 5775 5776 5775 5775 5775 5774 5775 5776 5777 5778 5778 5778 5778 5778 5777 5778 5778 5778 5776 5776 5776 5773 5768 5766 5766 5768 5769 5766 5764
5718 5720 5722 5723 5724 5725 5726 5727 5728 5730 5732 5734 5736 5738 5740 5742 5744 5746 5748 5751 5753 5756 5757 5759 5762 5765 5768 5772 5774 5775 5776 5776 5776 5776 5776 5776 5775 5775 5775 5774 5775 5776 5777 5778 5778 5777 5777 5777 5777 5776 5776 5776 5774 5772 5772 5768 5763 5762 5762 5764 5768 5766 5762
5716 5718 5719 5721 5722 5724 5725 5726 5727 5728 5730 5731 5733 5735 5736 5738 5740 5742 5744 5746 5749 5752 5754 5755 5758 5761 5765 5768 5771 5773 5774 5774 5775 5776 5777 5777 5776 5775 5775 5775 5776 5776 5777 5777 5777 5778 5777 5776 5775 5774 5772 5771 5770 5768 5766 5763 5760 5759 5759 5759 5761 5762 5762
5713 5715 5716 5718 5720 5721 5723 5724 5724 5725 5727 5728 5730 5732 5733 5735 5736 5737 5739 5742 5745 5747 5751 5753 5756 5758 5761 5764 5767 5769 5772 5773 5773 5774 5775 5776 5775 5774 5773 5774 5774 5775 5775 5776 5776 5776 5776 5775 5773 5770 5767 5766 5765 5763 5761 5759 5757 5757 5758 5758 5758 5759 5762
5713 5714 5715 5717 5719 5719 5721 5722 5722 5722 5723 5725 5727 5729 5731 5732 5734 5734 5736 5738 5741 5744 5747 5750 5753 5755 5758 5761 5763 5766 5769 5771 5772 5772 5773 5774 5773 5773 5773 5773 5774 5776 5776 5774 5772 5771 5771 5770 5769 5767 5764 5761 5760 5759 5757 5755 5754 5754 5756 5757 5757 5759 5761
5713 5713 5714 5716 5716 5717 5718 5718 5718 5719 5721 5723 5725 5727 5729 5731 5732 5734 5734 5736 5739 5741 5744 5746 5749 5752 5755 5759 5761 5764 5766 5768 5770 5770 5771 5771 5772 5772 5772 5772 5772 5774 5775 5774 5770 5768 5766 5764 5763 5761 5759 5757 5756 5755 5754 5752 5750 5751 5753 5754 5755 5757 5757
5712 5712 5713 5714 5713 5713 5714 5713 5714 5716 5718 5720 5722 5724 5728 5730 5731 5732 5732 5735 5738 5740 5741 5744 5747 5751 5754 5757 5760 5762 5764 5766 5767 5768 5769 5770 5771 5771 5770 5769 5769 5771 5772 5771 5768 5763 5760 5759 5755 5753 5751 5751 5751 5751 5750 5748 5748 5748 5749 5750 5751 5751 5750
5710 5710 5711 5712 5711 5710 5710 5710 5711 5713 5714 5716 5719 5723 5725 5728 5729 5730 5731 5735 5738 5739 5740 5744 5747 5751 5754 5757 5759 5761 5762 5763 5764 5766 5768 5769 5769 5769 5768 5767 5766 5765 5765 5764 5762 5758 5756 5754 5750 5745 5743 5744 5745 5746 5745 5744 5744 5744 5745 5746 5745 5744 5743
5708 5709 5709 5708 5707 5706 5706 5706 5707 5708 5710 5713 5717 5720 5723 5725 5726 5728 5731 5734 5736 5739 5743 5746 5749 5750 5752 5755 5758 5759 5760 5762 5762 5764 5766 5767 5765 5764 5763 5763 5762 5761 5760 5758 5756 5753 5749 5747 5745 5740 5737 5739 5740 5739 5738 5738 5739 5739 5739 5739 5739 5738 5738
5706 5706 5705 5704 5702 5702 5702 5703 5703 5704 5707 5710 5713 5717 5720 5721 5722 5725 5729 5732 5735 5740 5745 5748 5749 5751 5751 5753 5756 5758 5759 5761 5761 5761 5762 5762 5761 5759 5757 5757 5758 5756 5755 5752 5750 5748 5742 5740 5740 5737 5734 5734 5733 5731 5731 5731 5732 5732 5732 5731 5731 5731 5731
5701 5699 5699 5699 5698 5698 5698 5698 5699 5700 5703 5707 5710 5713 5716 5716 5718 5723 5726 5729 5734 5740 5744 5747 5750 5752 5752 5752 5754 5757 5759 5759 5759 5759 5759 5758 5757 5755 5752 5751 5750 5748 5747 5746 5744 5741 5736 5734 5732 5729 5727 5727 5724 5721 5721 5723 5725 5725 5724 5723 5723 5722 5723
5696 5695 5695 5695 5694 5695 5695 5694 5695 5696 5699 5702 5705 5708 5711 5712 5714 5718 5721 5726 5731 5737 5741 5745 5749 5750 5750 5751 5753 5755 5757 5757 5756 5756 5756 5754 5753 5749 5746 5745 5743 5742 5740 5739 5736 5732 5729 5727 5724 5720 5719 5718 5715 5711 5711 5713 5716 5717 5716 5715 5715 5714 5713
5691 5690 5691 5691 5691 5692 5691 5691 5691 5692 5694 5698 5700 5703 5706 5708 5710 5713 5716 5722 5728 5733 5736 5741 5746 5747 5748 5749 5751 5752 5754 5753 5752 5752 5752 5751 5749 5746 5744 5742 5739 5736 5734 5732 5729 5725 5721 5718 5716 5714 5713 5711 5708 5705 5702 5704 5706 5708 5708 5707 5706 5705 5704
5687 5686 5687 5687 5687 5688 5688 5688 5688 5688 5690 5693 5696 5699 5701 5704 5706 5709 5713 5718 5724 5728 5732 5736 5739 5741 5743 5745 5746 5748 5748 5747 5745 5745 5746 5745 5744 5743 5742 5740 5737 5733 5729 5726 5723 5720 5717 5712 5707 5704 5704 5703 5701 5698 5695 5696 5699 5697 5696 5696 5696 5697 5696
5682 5683 5682 5682 5684 5684 5685 5685 5684 5685 5687 5689 5691 5695 5697 5700 5703 5706 5710 5715 5719 5723 5726 5729 5731 5733 5734 5735 5737 5738 5739 5738 5737 5735 5735 5734 5734 5734 5734 5734 5733 5730 5724 5720 5717 5714 5711 5707 5700 5697 5696 5695 5693 5691 5688 5689 5690 5687 5685 5687 5688 5688 5688
5678 5678 5678 5679 5681 5681 5682 5682 5681 5682 5684 5685 5687 5691 5693 5696 5699 5703 5706 5710 5714 5718 5720 5722 5724 5725 5726 5727 5728 5728 5728 5727 5727 5725 5723 5721 5720 5719 5718 5719 5722 5721 5713 5709 5708 5707 5704 5700 5697 5694 5691 5686 5685 5685 5681 5678 5680 5679 5677 5679 5680 5679 5679
5675 5674 5675 5676 5677 5678 5679 5678 5678 5680 5681 5682 5685 5687 5689 5692 5695 5699 5702 5705 5708 5711 5712 5714 5716 5717 5718 5719 5719 5718 5717 5716 5715 5713 5712 5711 5709 5708 5703 5700 5705 5710 5706 5698 5698 5699 5697 5693 5689 5687 5683 5677 5677 5681 5677 5671 5672 5673 5671 5672 5673 5672 5673
5672 5671 5673 5673 5674 5675 5675 5675 5676 5677 5677 5679 5682 5685 5686 5689 5690 5693 5697 5700 5702 5703 5704 5705 5708 5709 5709 5711 5710 5709 5708 5707 5705 5703 5703 5702 5702 5700 5694 5685 5686 5695 5697 5691 5686 5685 5683 5682 5682 5681 5678 5673 5672 5675 5674 5671 5669 5668 5666 5666 5666 5666 5667
5669 5670 5670 5670 5671 5671 5671 5672 5673 5673 5674 5676 5679 5682 5683 5685 5686 5688 5691 5694 5696 5696 5696 5697 5699 5700 5700 5701 5702 5701 5700 5697 5695 5694 5693 5691 5688 5686 5683 5676 5672 5675 5679 5678 5674 5670 5670 5673 5676 5675 5673 5671 5669 5668 5668 5666 5664 5662 5661 5660 5660 5660 5660
5666 5667 5667 5668 5669 5668 5668 5669 5669 5669 5670 5672 5675 5677 5680 5680 5680 5682 5685 5687 5689 5689 5690 5690 5691 5691 5691 5692 5693 5694 5692 5689 5686 5683 5682 5680 5677 5674 5674 5671 5667 5664 5663 5663 5661 5659 5659 5664 5666 5666 5666 5667 5667 5665 5662 5659 5658 5657 5655 5655 5654 5654 5654